Location: Unspecified
(0.0000°N, 0.0000°E)
Time: 21:44:58
(UTC+00:00)

Galileo 6 - Pass Details

Date: 02 December 2022
Orbit: 17095 x 26103 km, 50.1° (Epoch: 05 February)

Event Time Altitude Azimuth Distance (km) Brightness Sun altitude
Rises 06:13:52 0° 314° (NW) 22,656 ? 5.7°
Reaches altitude 10° 06:37:00 10° 307° (NW) 21,505 ? 11.0°
Maximum altitude 15:17:16 60° 90° (E) 24,788 ? 34.8°
Drops below altitude 10° 17:59:01 10° 35° (NE) 23,057 ? -2.2°
Sets 18:21:30 0° 37° (NE) 23,497 ? -7.4°
